CAPE
896 809 2019 2262 2330 2469 2668 3049 2882 2904 2697 2725 2436 1993 1902 1803 2037 2666 2502 1979 1732 2081 2244 2257 2483 1964 1531 2034 2126 2044 2491 2462 2294 2145 2342 2111 2200 2067 1658 2183 2233 1663 1753
828 904 1914 2323 2291 2257 2738 3030 3247 3394 3153 2917 2890 2325 2013 2499 2638 2243 2610 1418 1628 1990 2059 1837 1983 2318 1493 2090 1854 2482 2409 2228 2299 2208 2204 2225 2023 1919 1991 1549 2042 2231 1772
817 1016 1255 2176 2530 2506 3043 3039 3139 2621 2516 2290 2589 2524 2752 2362 2140 2299 2515 1334 1598 1678 2393 2244 2120 1961 1524 1827 2181 2191 2228 2148 1996 2023 1985 1780 1880 2112 2046 1579 1847 2173 2135
712 989 964 2098 2571 2695 2933 2926 2921 2590 2122 2894 2859 2465 2467 2021 2394 2634 2502 1353 1760 2235 2386 2046 938 1771 1658 1541 1972 1968 1974 2012 1924 1945 1525 1436 1333 1952 1971 2137 1450 2152 2196
568 853 1029 2362 2622 2703 2583 2844 2876 2805 2363 2415 2461 2351 2396 2694 2533 2662 2315 1566 1833 2076 1844 1368 256 177 1432 1804 1850 2120 2153 2165 2104 1638 1644 1894 1721 1920 1996 1905 1538 1815 1926
544 724 1503 2292 2026 2367 2421 2561 2190 2132 2022 1973 2087 1801 1875 2084 2437 2524 2238 1696 1964 1811 1333 838 141 45 704 1597 1711 1699 1795 2078 1888 1716 1854 1942 1655 1827 1831 1782 1755 1370 2082
173 626 936 2088 2284 2370 2056 1921 2042 1969 2382 2993 2819 2514 2424 2177 2003 2101 1922 1943 1961 1713 907 799 520 578 878 877 1168 1324 1510 1834 1634 1992 1659 1799 2072 2124 1667 1767 1865 1170 2096
56 479 775 1356 2106 2065 1745 1398 1830 1522 1734 2004 1980 1698 1796 1801 1784 1793 1958 1793 1765 1563 1295 999 798 847 668 614 986 814 1105 1439 1227 1706 1487 1933 2003 2028 1624 1454 1581 1320 1670
121 514 1125 1093 1895 1981 2190 1715 1686 1645 1838 1895 2224 2006 1758 1355 1133 1063 1098 1225 1147 1162 1145 1071 777 550 771 606 592 667 624 1263 1413 975 1373 1594 1779 1076 1793 1726 1734 1689 1748
202 377 773 901 1455 2103 1907 1988 1657 1628 1933 1577 1809 920 721 215 419 577 1343 1150 1439 1240 1175 1172 905 569 494 783 577 502 468 573 1087 1028 1002 527 1286 1103 1719 1793 1750 1702 1739
179 434 514 832 1176 1564 1824 2009 2233 2088 1904 1720 652 189 82 110 133 300 705 728 841 547 298 428 810 947 500 609 661 558 557 677 924 1212 1114 920 882 1327 1760 1793 1835 1705 1573
90 386 571 526 798 1025 793 1226 1964 2216 1707 2003 1175 947 549 335 167 629 439 315 530 670 758 920 1106 1288 670 573 849 423 225 489 374 880 1319 1213 1074 890 1332 1775 1791 1780 1750
33 116 448 671 939 713 595 937 1010 1596 1708 1644 1257 702 509 254 481 180 253 172 74 29 329 713 932 1013 667 1233 795 639 129 682 523 355 407 1342 1491 965 762 1408 1841 1827 1826
64 120 186 455 943 855 659 978 1070 896 1210 1446 1492 727 648 255 30 7 7 35 43 19 153 1093 1448 1067 1263 1250 766 673 546 643 588 377 465 1039 1575 739 872 1005 1662 1673 1838
126 111 177 286 738 1027 1179 884 939 1439 1215 1048 1252 1034 678 364 166 76 57 9 40 55 210 866 832 1026 1485 1302 1137 1101 868 686 778 426 434 323 877 1128 1249 380 1003 1758 1848
68 130 202 398 617 888 1086 1574 1263 1423 1013 916 1007 935 904 615 429 305 114 15 13 44 117 452 1444 1356 1219 1410 1334 1272 1153 896 868 850 590 456 729 718 1306 930 1312 1495 1897
38 129 266 329 456 1155 919 1610 1462 1381 922 745 1504 424 1034 906 594 522 180 75 9 29 200 509 1107 1390 1595 651 504 1369 1266 1209 1247 1040 817 373 562 387 295 983 1097 1484 1835
58 318 500 384 498 1107 981 1180 1179 1318 1343 1917 1117 715 901 970 749 777 318 141 122 406 394 468 960 1796 1382 968 1154 957 1296 1293 1068 1092 961 780 449 974 629 695 836 1260 1477
494 822 372 384 409 700 1179 1229 1308 1357 1465 1562 1487 1891 1387 1019 218 787 569 525 678 546 504 431 1595 1552 495 696 1136 1215 982 1160 1136 772 806 906 742 583 644 945 1123 1499 1262
1057 1069 249 70 264 679 1173 1297 1433 1131 1328 1315 1501 2038 1258 1305 936 1005 846 794 892 644 272 475 1388 787 463 1431 1027 1360 1226 1174 1028 910 867 1039 855 700 615 607 731 769 1405
947 253 186 61 140 771 1212 1226 1059 1166 1729 1761 1718 1528 1468 1335 1129 1054 952 1256 1054 543 302 364 864 948 699 354 908 408 614 1165 1220 949 700 735 889 634 616 735 678 606 835
514 597 242 72 150 532 1331 1247 1729 1585 1650 1489 1845 1518 1338 618 1251 880 659 1375 801 255 266 203 712 1442 686 226 868 821 1276 1092 1295 1171 1044 1154 1033 917 634 664 772 727 721
788 586 574 82 295 824 1033 1366 1459 1389 1517 1702 1529 1499 330 235 658 372 621 1050 787 321 170 208 366 927 1023 1175 1142 1128 259 996 886 1097 1272 1000 1317 1207 974 841 763 734 900
606 846 845 794 912 932 1149 1145 1420 1918 1693 1629 1698 980 428 538 543 1084 1211 1099 738 461 511 463 511 834 1217 1605 913 1107 1090 627 771 1105 964 1263 1344 1342 1189 1164 1183 1212 1144
451 698 819 939 960 1034 995 1110 1377 1384 1298 1870 1006 386 420 602 1157 748 1066 863 1001 928 801 818 1332 1494 1229 1358 1517 1226 1214 998 886 830 355 629 930 988 1029 1419 1377 1351 1401
419 622 627 869 866 943 1114 1241 1417 1390 1502 1963 1744 1375 1030 1061 997 1243 982 1010 1038 1092 1162 856 1240 1475 1449 1393 1346 1231 1241 738 652 656 367 414 463 779 992 1062 1382 1589 1587
CIN
0 0 0 0 0 0 0 0 -4 0 0 0 0 0 0 0 0 0 0 -1 -3 0 -3 -2 0 -2 -7 -1 0 0 0 0 0 0 0 0 0 0 0 0 0 0 0
0 0 0 0 0 0 0 0 0 0 0 0 0 0 0 0 0 0 0 -10 -2 0 0 -1 -1 0 -3 -2 0 -1 0 0 0 0 0 0 0 0 0 0 -1 0 0
-1 0 0 0 0 0 0 0 0 -1 0 -2 0 0 0 0 0 0 0 -13 -3 0 0 -6 -20 -4 -3 -1 0 0 0 0 0 0 0 0 0 0 0 0 0 0 0
-14 0 0 0 0 0 0 0 0 0 0 0 0 0 -1 -1 0 0 0 -3 0 0 0 0 -58 -22 -7 -1 0 0 0 0 -2 -1 0 0 0 0 0 0 0 0 0
-23 -1 0 0 0 0 0 0 0 0 0 0 0 -1 -2 0 0 0 0 0 0 0 0 -13 -83 -73 -14 -2 -3 0 0 0 0 -2 0 0 0 0 0 0 0 0 0
-26 -4 0 0 0 0 0 0 0 0 0 0 0 0 0 0 0 0 0 0 0 0 0 -7 -73 -99 -20 -2 -4 -3 -2 0 -1 0 0 0 0 0 0 -1 0 0 0
-68 -6 0 0 -1 0 0 0 0 0 0 0 0 0 0 0 0 0 0 0 0 0 0 -1 -11 -9 -7 -10 -7 -8 -8 -3 0 -1 0 0 -1 0 0 0 0 -3 0
-94 -7 -3 0 0 -1 0 0 0 0 0 0 0 0 0 0 0 0 0 0 0 -1 -3 -4 -4 -6 -6 -6 -5 -10 -10 -8 -2 0 0 -2 -2 0 0 0 -2 -1 0
-64 -21 0 -1 0 0 0 0 0 0 0 0 0 0 0 0 0 0 0 -5 -1 0 -3 -5 -7 -11 -9 -6 -8 -6 -12 -18 -4 -1 -1 -12 -8 -9 -3 0 0 -1 0
-31 -19 -1 -1 -1 0 0 0 -1 0 0 0 -1 -29 -34 -42 -42 -5 -1 -6 -1 0 -1 -3 -6 -11 -11 -6 -8 -8 -11 -16 -3 -2 -3 -12 -18 -10 0 0 0 0 0
-68 -10 -7 -1 0 0 0 0 0 0 0 0 -29 -47 -76 -101 -88 -64 -18 -9 -12 -5 -12 -9 -3 -2 -7 -3 -2 -21 -10 -27 -18 -3 -20 -29 -21 -7 -1 0 0 0 0
-108 -30 -6 -12 -14 -4 -3 0 0 -5 0 -3 -4 -4 -28 -32 -70 -13 -5 -14 -7 -7 -15 -13 -16 -6 -21 -1 0 -18 -27 -26 -13 -2 -12 -22 -15 -11 -3 0 0 0 0
-140 -98 -33 -9 -8 -13 -19 -5 0 -5 -1 -3 -4 -19 -14 -15 0 -4 -7 -8 -28 -41 -2 -9 -3 -1 -3 0 0 -3 -22 -6 -2 -14 -26 -11 -6 -7 -4 -2 0 -2 0
-208 -133 -91 -28 0 -1 -5 -5 -2 -23 -2 0 0 -11 -4 -14 -43 -43 -48 -52 -49 -89 -7 -1 -5 -3 -1 -1 -2 -2 -5 -1 -12 -4 -11 -8 -4 -3 -6 -5 -2 -1 -1
-149 -168 -127 -56 -3 0 0 -5 -30 -6 -8 -15 0 0 -2 -7 -14 -28 -7 -51 -71 -42 -7 -2 -5 -8 -7 -7 -6 -6 -8 -8 -5 -16 -22 -13 -3 -1 -2 -14 -3 -2 0
-190 -139 -94 -71 -22 -2 0 0 -4 -2 -17 -24 -11 -2 -4 -4 -10 -7 -9 -97 -98 -45 -21 -9 -11 -13 -19 -7 -9 -3 -7 -6 -3 -8 -6 -12 -5 -10 0 -2 0 0 0
-27 -97 -106 -102 -38 0 0 0 0 0 -12 -39 -10 -43 -1 -3 -24 -10 -25 -48 -120 -72 -19 -10 -8 -8 -4 -40 -48 -3 0 -1 -1 -7 0 -4 -1 -17 -17 -1 0 0 0
-45 -89 -52 -42 -21 0 0 0 0 -1 0 -3 -34 -43 -20 -9 -14 -7 -20 -35 -24 -6 -6 -2 -3 -9 -14 -15 -5 -13 0 0 0 0 0 0 0 -1 -10 -9 -8 -2 0
-37 -16 -29 -21 -25 -17 0 0 -1 -2 -1 -1 -6 -7 -15 -11 -36 -14 -10 -4 0 0 -2 -4 -1 -10 -46 -42 -9 -4 -2 0 0 -2 0 0 -1 0 -1 -1 -4 -1 0
-3 -1 -9 0 -1 -2 0 0 0 0 0 -5 -11 -8 -24 -7 -19 -11 -10 0 0 0 -6 -8 -1 -21 -52 -7 0 0 0 0 -3 -7 -4 0 0 0 0 0 0 0 -1
-3 -33 -15 -1 -1 0 0 0 0 0 -4 -12 -18 -18 -11 -11 -5 -7 -10 0 0 -3 -10 -19 -2 -18 -8 -33 -1 -34 -16 -2 -4 -17 -21 -10 0 -2 0 0 0 0 0
-32 -13 -43 -24 -22 -12 0 0 0 -9 -10 -6 -9 -16 -13 -39 -5 -19 -26 -1 -4 -12 -20 -30 -6 0 -8 -46 -6 -20 -2 0 0 -1 -5 -1 -5 0 -6 -1 0 0 0
-1 -12 -13 -45 -23 0 0 0 -3 -11 -13 -13 -15 -16 -70 -64 -23 -41 -23 -1 -2 -13 -14 -18 -15 -1 0 -7 -4 -2 -45 -2 -5 -7 -6 -12 -1 -3 -3 -2 -2 -1 0
-7 -1 -4 -3 -2 -1 0 0 -3 -5 -3 -8 -7 -41 -77 -58 -36 -3 0 0 -5 -4 -5 -4 -4 -1 0 0 -23 -6 -10 -24 -3 -5 -13 -7 -8 -6 -3 -1 0 -1 -4
-23 -7 -3 -9 -9 -1 -7 -4 -7 -6 -11 -6 -46 -91 -89 -65 -11 -24 -5 -2 0 0 -1 -1 0 0 0 -3 0 -5 -3 -4 -9 -5 -1 -14 -24 -26 -27 -8 -8 -4 -7
-68 -41 -35 -14 -14 -15 -12 -6 -9 -12 -11 -6 -8 -10 -29 -31 -19 -4 -5 -1 0 0 0 0 0 0 0 0 -3 -4 -5 -6 -5 -9 -18 -20 -19 -14 -29 -44 -32 -11 -11
Wind_Speed
5 7 4 6 7 8 8 9 11 11 12 12 11 12 13 13 13 11 10 9 8 9 9 10 13 11 8 8 7 5 7 7 6 7 8 9 9 8 9 10 6 9 9
8 7 7 9 11 10 10 12 11 9 11 12 13 12 14 15 12 12 13 12 11 12 12 5 5 10 5 7 6 9 8 5 7 6 7 7 8 8 9 8 10 9 10
10 8 9 10 12 13 13 14 14 11 12 13 14 13 12 15 15 14 14 13 15 15 19 10 9 2 3 4 4 4 5 5 6 8 6 4 8 8 8 8 8 10 10
14 11 10 10 14 16 14 15 15 14 13 14 16 15 12 15 16 16 14 13 15 14 17 12 12 7 11 7 7 2 3 4 5 6 3 5 7 9 9 9 8 9 10
13 13 13 13 14 16 16 15 14 16 16 13 14 14 13 14 16 15 14 13 14 13 13 12 13 10 7 11 10 7 6 4 4 4 2 5 8 9 10 10 8 7 9
13 13 15 16 16 15 15 14 15 16 16 14 12 12 12 10 10 11 13 13 12 10 12 13 14 nan 8 13 13 8 6 9 6 6 3 4 5 10 9 10 10 8 10
13 12 14 15 15 15 15 13 13 13 14 16 13 13 11 11 10 11 11 9 11 11 9 11 14 13 9 9 12 8 11 12 9 5 5 6 5 9 9 9 10 8 9
nan 11 12 15 15 13 13 12 11 13 16 12 13 13 10 10 10 7 8 8 9 9 9 9 8 11 10 10 14 10 10 12 9 7 7 5 7 8 11 10 9 8 9
14 12 12 10 15 17 13 13 13 13 19 17 18 21 15 12 7 3 7 9 9 9 10 10 11 11 12 13 11 9 4 8 10 7 8 5 7 7 6 11 10 10 9
13 12 13 9 10 11 12 15 14 15 17 19 20 19 14 11 10 13 10 9 9 9 9 10 10 11 14 17 10 7 7 9 10 9 8 6 7 7 8 10 10 9 8
14 14 13 13 10 9 8 8 12 14 18 16 17 22 nan 8 10 15 14 8 8 9 7 10 12 12 11 18 22 12 13 13 12 11 6 7 8 5 11 11 12 9 8
nan 17 15 12 13 12 7 8 5 3 7 9 10 13 12 13 12 14 8 5 7 6 3 4 6 17 19 16 17 17 13 13 15 12 7 7 15 3 11 13 12 10 8
nan 16 16 13 11 12 7 5 5 1 3 7 11 9 9 11 12 10 2 4 nan nan 6 4 7 12 16 15 16 18 16 14 14 16 12 7 12 7 8 15 11 9 9
nan 13 12 12 10 9 7 5 5 4 2 5 8 10 9 9 nan nan nan nan nan nan 3 4 5 8 11 15 15 15 18 18 13 17 17 12 11 14 5 21 14 11 9
22 19 14 12 11 9 9 7 8 3 3 2 5 8 8 10 11 nan nan nan nan nan 2 4 4 6 9 12 14 14 14 18 22 17 17 23 16 10 6 18 19 12 7
nan 13 23 17 15 9 9 8 6 3 4 1 1 5 8 7 7 8 9 nan nan nan 1 2 1 3 4 7 9 12 12 16 18 18 18 17 27 22 11 17 16 10 7
nan 17 19 16 19 16 7 8 4 4 5 3 2 5 3 6 8 6 7 nan nan nan 3 2 1 4 9 6 9 9 12 13 12 14 16 15 18 28 22 18 13 12 11
nan 20 17 21 23 21 8 8 3 4 5 4 6 7 3 3 6 7 7 8 6 5 1 2 3 5 6 6 7 8 8 10 12 12 12 11 12 10 14 17 14 12 11
18 21 21 29 25 28 6 10 6 4 4 4 4 7 8 5 7 7 8 7 5 4 4 1 3 4 5 4 6 10 5 6 9 10 12 11 11 9 6 9 12 10 11
19 20 18 nan 20 9 10 13 12 9 4 5 3 5 7 7 8 8 9 5 7 5 7 3 2 5 3 2 4 7 4 3 4 4 8 8 9 8 8 7 2 5 10
15 20 19 nan 13 13 12 14 8 3 4 5 4 4 5 4 7 8 9 5 5 2 3 3 4 3 2 1 5 2 3 3 3 4 6 1 6 9 8 6 4 4 3
11 11 17 nan 12 1 9 5 6 7 7 5 5 6 5 3 10 9 9 11 7 5 3 3 4 5 5 4 2 3 5 5 5 4 5 4 3 2 4 7 7 6 8
12 9 17 nan 5 3 3 7 8 8 6 5 8 12 8 10 12 14 11 7 6 4 5 3 3 3 2 5 4 3 5 3 4 4 3 4 6 2 2 2 6 7 7
12 9 12 5 3 3 1 1 2 5 4 6 6 13 13 12 8 6 1 4 7 6 6 3 4 3 4 3 3 6 10 7 7 7 8 10 6 4 2 0 2 5 6
9 9 7 3 1 2 2 2 4 1 4 6 11 9 10 7 3 3 4 7 8 7 4 1 2 3 4 3 5 4 6 6 8 9 11 5 7 3 2 3 3 2 5
6 6 4 5 3 1 4 7 6 5 3 0 5 6 6 6 4 6 5 10 9 6 4 1 1 3 5 5 3 4 5 5 5 10 12 7 6 5 2 3 3 3 1
Wind_Direction
42 347 324 300 276 263 270 288 311 331 337 338 347 350 354 344 342 333 332 323 324 307 299 283 250 237 220 230 231 252 250 258 252 261 264 254 253 250 238 228 253 234 236
5 345 313 296 290 285 281 285 289 307 316 326 336 346 354 355 338 341 335 335 331 330 327 290 304 247 219 248 229 243 252 274 304 298 281 268 266 258 248 224 205 232 234
350 348 319 298 294 292 287 290 292 304 312 320 332 343 356 357 353 353 338 332 343 356 7 348 344 165 142 277 249 261 281 293 282 293 285 291 265 271 253 240 219 226 230
349 346 324 306 295 290 287 291 299 306 316 327 330 341 350 356 359 355 339 340 360 15 5 30 3 42 32 26 3 315 297 326 317 295 292 276 268 267 245 233 227 213 219
355 345 328 316 300 296 293 292 298 310 318 326 325 327 337 348 4 348 337 349 13 17 8 12 12 19 16 28 19 19 346 326 320 9 241 242 245 244 240 220 221 207 206
353 345 328 323 313 308 302 299 303 312 320 312 319 326 334 334 325 345 343 352 7 23 11 357 15 nan 38 20 26 19 33 4 342 356 0 280 249 239 229 215 202 197 213
347 341 332 326 323 320 311 314 321 328 326 326 333 317 314 325 327 346 354 355 359 18 21 17 6 15 24 20 20 35 31 6 10 339 333 306 259 198 209 197 192 193 199
nan 333 327 335 328 322 314 320 333 343 346 346 337 337 317 305 304 348 358 11 9 16 14 14 5 15 8 14 19 31 22 16 18 12 11 332 325 215 185 178 182 186 183
327 333 332 334 329 328 324 334 346 339 349 355 353 339 309 296 249 14 45 38 23 22 25 16 19 24 36 21 26 36 34 1 8 4 360 357 12 164 191 176 176 174 177
317 327 320 315 330 324 331 340 352 356 2 15 340 328 302 300 211 124 73 42 22 20 23 15 17 27 32 24 356 43 37 39 26 22 10 9 8 262 179 173 169 165 171
312 322 318 316 318 323 336 344 354 6 16 16 343 348 nan 38 67 85 78 48 34 18 33 29 24 19 39 49 53 49 46 36 25 29 11 11 11 288 177 172 157 157 158
nan 330 327 323 334 339 344 348 347 21 7 45 9 27 34 34 35 47 46 33 52 46 27 38 44 40 32 40 33 23 8 19 23 27 12 20 15 15 207 162 151 146 131
nan 335 340 331 327 340 334 326 301 8 347 42 7 28 46 37 24 18 330 32 nan nan 35 13 43 29 36 29 30 19 39 31 49 25 22 37 24 33 202 144 130 138 127
nan 335 346 336 316 332 299 303 301 229 316 35 30 6 33 34 nan nan nan nan nan nan 18 19 26 43 35 22 20 36 31 33 38 35 27 30 35 20 318 138 126 113 91
3 347 336 334 316 308 292 265 246 260 276 42 32 28 25 27 24 nan nan nan nan nan 9 359 33 42 29 32 29 34 27 29 29 33 29 22 32 34 66 89 113 108 106
nan 343 331 325 326 249 268 276 241 236 223 241 354 31 20 27 19 15 347 nan nan nan 272 32 38 25 42 31 34 36 38 39 36 26 29 39 37 55 101 80 93 95 90
nan 324 319 327 323 284 228 249 246 195 251 183 292 339 16 15 0 2 348 nan nan nan 87 47 37 28 16 2 48 38 44 51 35 33 34 39 49 57 84 75 80 94 91
nan 321 311 285 312 289 218 231 206 211 182 211 251 268 303 1 348 351 348 348 10 341 352 16 13 335 322 33 1 14 19 39 34 29 32 44 61 76 79 64 67 78 78
326 320 299 262 259 316 234 210 183 205 220 202 245 285 292 297 316 339 331 325 356 323 295 295 9 312 309 65 330 355 13 23 31 31 47 53 43 74 88 34 53 72 62
320 314 304 nan 301 272 224 206 197 215 221 260 236 266 271 285 318 328 318 344 346 334 251 256 245 290 342 137 306 343 35 39 22 358 31 39 53 52 76 91 58 89 69
315 298 313 nan 325 292 190 195 194 227 241 263 274 275 314 295 322 314 297 330 344 350 207 254 254 342 276 206 27 312 348 324 346 308 329 14 57 59 57 66 98 136 84
332 345 334 nan 329 220 154 201 231 237 234 233 267 268 263 272 304 314 268 280 302 254 280 330 4 205 251 347 131 174 303 290 313 285 308 323 357 75 53 52 72 85 112
344 338 340 nan 349 158 119 203 228 249 264 259 258 262 271 279 296 302 298 249 248 221 214 36 27 120 215 340 359 6 311 183 313 261 276 298 294 247 121 46 69 70 72
2 354 327 349 21 73 72 119 97 247 238 259 266 266 315 325 304 337 124 200 183 180 197 342 25 72 74 110 25 56 67 80 64 27 316 255 267 298 338 298 11 63 59
358 4 341 355 140 59 29 45 241 222 178 264 257 250 264 289 312 149 133 146 156 158 169 288 30 74 46 111 85 82 31 36 46 43 6 264 222 261 297 346 324 354 34
331 330 317 356 25 340 358 7 69 106 92 22 287 249 266 275 182 138 146 151 153 147 126 144 68 60 69 94 68 44 50 40 12 32 40 57 175 233 280 327 335 321 337